[[{"header":{"parameterUnit":"m.s-1","parameterCategory":1,"la1":30.2991,"la2":30.254,"lo1":-89.0895,"lo2":-89.0444,"dy":0.0017,"dx":0.0017,"nx":28,"ny":28,"refTime":"2024-08-06T09:00:00:Z","depth":0,"parameterNumber":2,"parameterNumberName":"U-component_of_WINDS"},"data":[0,0,0,0,0,0,0,0,0,0,0,0,0,0,0,0,0,0,0,0,0,0,0,0,0,0,0,0,0,0,0,0,0,0,0,0,0,0,0,0,0,0,0,0,0,0,0,0,0,0,0,0,0,0,0,0,0,0,2.0206,2.0207,0,2.0249,2.0249,2.025,2.0211,2.0209,2.0207,2.0206,2.0251,2.0254,2.0256,0,0,0,0,0,0,0,0,0,0,0,0,0,2.0094,2.0097,2.0206,2.0207,2.0207,2.0249,2.0249,2.025,2.0211,2.0209,2.0207,2.0205,2.025,2.0253,2.0256,0,0,0,0,0,0,0,0,0,0,0,0,0,2.0141,2.0097,2.0206,2.0193,2.0192,2.0249,2.0249,2.025,2.0211,2.0209,2.0206,2.0204,2.0249,2.0253,2.0257,2.0329,0,0,2.0269,2.0271,0,0,0,0,0,0,0,0,2.0138,2.0145,2.0194,2.0194,2.0193,2.0222,2.0226,2.0277,2.0212,2.0204,2.0206,2.0203,2.0243,2.0248,2.0261,2.0331,2.0333,2.0269,2.0272,2.0274,2.0275,0,0,0,0,0,0,0,2.0135,2.0143,2.0223,2.0195,2.0194,2.0186,2.019,2.0236,2.0237,2.0205,2.0202,2.0207,2.0243,2.0257,2.0262,2.0334,2.0269,2.0273,2.0275,2.0277,2.0468,2.047,0,0,0,0,0,0,2.0133,2.014,2.0222,2.0224,2.0159,2.019,2.0194,2.0215,2.0236,2.0237,2.0209,2.0205,2.0251,2.0257,2.0263,2.035,2.0274,2.0277,2.028,2.0465,2.0468,2.0471,0,0,0,0,0,0,2.0131,2.014,2.022,2.0182,2.0191,2.0194,2.0218,2.0217,2.0232,2.0239,2.024,2.0224,2.025,2.0257,2.0313,2.0351,2.0279,2.0283,2.0462,2.0466,2.047,2.0525,0,0,0,0,0,0,2.0128,2.014,2.0167,2.0183,2.0193,2.0269,2.022,2.022,2.0238,2.0234,2.0253,2.0254,2.0248,2.0308,2.0317,2.0356,2.0286,2.0459,2.0464,2.0469,2.052,2.053,2.0539,0,0,0,0,0,2.0124,2.018,2.0168,2.0178,2.0227,2.0271,2.0277,2.0269,2.0242,2.0269,2.0275,2.0253,2.0346,2.0314,2.0324,2.0364,2.0456,2.0462,2.0468,2.0515,2.0528,2.0539,0,0,0,0,0,0,2.0169,2.0182,2.0169,2.0232,2.0251,2.0264,2.0299,2.0283,2.031,2.0305,2.0294,2.0299,2.0358,2.0367,2.0331,2.0436,2.0397,2.0405,2.0429,2.0441,2.0451,2.0448,2.0289,0,0,0,0,0,2.0186,2.0221,2.023,2.0286,2.0296,2.0296,2.0315,2.0307,2.0326,2.0334,2.0343,2.0363,2.0397,2.0419,2.045,2.0521,2.0525,2.0554,2.0563,2.0571,2.0579,2.0618,2.0632,2.0491,2.0491,2.0491,0,0,2.0223,2.0234,2.0256,2.0295,2.0309,2.0345,2.0303,2.0343,2.0371,2.034,2.0394,2.0402,2.0424,2.0487,2.0516,2.0496,2.0619,2.0579,2.0585,2.0589,2.0626,2.0639,2.0651,2.0495,2.0494,2.0494,0,0,2.0307,2.0319,2.0367,2.0382,2.0403,2.0403,2.0414,2.0431,2.0435,2.0488,2.0467,2.05,2.0558,2.0575,2.0591,2.0684,2.0666,2.0695,2.0746,2.0785,2.0796,2.0805,2.084,2.0853,2.0702,2.0702,2.0702,0,2.035,2.0404,2.0394,2.0436,2.0454,2.0429,2.0478,2.0493,2.0523,2.0537,2.0515,2.0588,2.06,2.0669,2.0692,2.0705,2.0719,2.0692,2.0795,2.0805,2.0814,2.0846,2.0859,2.0706,2.0705,2.0705,2.0705,0,2.0456,2.0494,2.053,2.056,2.0582,2.0628,2.0626,2.065,2.0641,2.0644,2.07,2.0714,2.0749,2.0764,2.0755,2.0832,2.0819,2.0796,2.0756,2.083,2.0861,2.0874,2.071,2.0709,2.0708,2.0707,0,0,2.057,2.0595,2.0608,2.0622,2.0645,2.0674,2.0719,2.0753,2.0774,2.0797,2.0835,2.0886,2.0865,2.0883,2.0876,2.091,2.0985,2.0883,2.0883,2.0902,2.1072,2.109,2.1105,2.0973,2.0976,2.0977,2.1071,0,2.0657,2.0734,2.0727,2.0801,2.0837,2.0814,2.0854,2.0872,2.0877,2.0909,2.0913,2.095,2.0918,2.093,2.0962,2.0969,2.1019,2.0962,2.101,2.1012,2.1006,2.112,2.1139,2.1226,2.1082,2.1084,2.1086,0,2.0768,2.0794,2.0872,2.089,2.0905,2.0941,2.0972,2.1002,2.1023,2.1024,2.1046,2.1033,2.108,2.1039,2.1105,2.1066,2.1086,2.1092,2.1095,2.11,2.1054,2.1129,2.1254,2.1267,2.1105,2.1103,2.1102,0,2.0845,2.09,2.0954,2.0967,2.0989,2.1015,2.1025,2.1044,2.1065,2.1093,2.1107,2.1139,2.1158,2.1184,2.1182,2.1151,2.1249,2.1207,2.1252,2.1252,2.1274,2.1273,2.1404,2.1285,2.1285,2.1285,2.1284,0,2.0943,2.0992,2.0989,2.1022,2.1077,2.1069,2.1124,2.1131,2.1149,2.1184,2.1166,2.12,2.1194,2.1229,2.1227,2.1283,2.1291,2.1294,2.1293,2.1296,2.1296,2.1309,2.1303,2.1288,2.1287,2.1287,2.1286,0,2.1038,2.1038,2.1096,2.1112,2.1118,2.1157,2.1172,2.1204,2.1207,2.1253,2.1263,2.1268,2.1308,2.1308,2.1353,2.1352,2.1421,2.1413,2.1414,2.1412,2.1458,2.1454,2.1603,2.1623,2.149,2.1491,2.1492,0,2.1101,2.1138,2.1159,2.1181,2.1193,2.1229,2.1251,2.1245,2.1268,2.1297,2.1326,2.1364,2.1394,2.1459,2.1467,2.1502,2.1496,2.1545,2.1501,2.1503,2.1498,2.1496,2.15,2.1554,2.1556,2.1557,2.1558,0,2.1213,2.1211,2.1243,2.1275,2.1301,2.1326,2.135,2.1369,2.1366,2.1394,2.1434,2.1457,2.1504,2.1542,2.1577,2.1589,2.1574,2.1572,2.1585,2.1588,2.1588,2.159,2.1438,2.1569,2.1568,2.1567,2.1566,2.1566,2.1295,2.1327,2.1347,2.1383,2.14,2.1423,2.1454,2.1462,2.1495,2.1532,2.1527,2.1572,2.1594,2.1639,2.1654,2.169,2.1673,2.1691,2.1695,2.17,2.1706,2.1582,2.1696,2.1696,2.1696,2.1695,2.1695,0,2.1407,2.1419,2.1452,2.1485,2.1514,2.1497,2.1522,2.1548,2.1588,2.1609,2.1639,2.1687,2.1724,2.1736,2.1773,2.18,2.1794,2.181,2.1808,2.1812,2.1718,2.1704,2.1814,2.1814,2.1814,2.1814,2.1814,2.1814,2.1469,2.1523,2.1524,2.1588,2.16,2.1643,2.166,2.1681,2.1698,2.1752,2.1783,2.179,2.1808,2.1847,2.1881,2.1884,2.1899,2.1918,2.1918,2.183,2.1818,2.1807,2.1794,2.1921,2.1921,2.2008,2.2009,2.201]},{"header":{"parameterUnit":"m.s-1","parameterCategory":1,"la1":30.2991,"la2":30.254,"lo1":-89.0895,"lo2":-89.0444,"dy":0.0017,"dx":0.0017,"nx":28,"ny":28,"refTime":"2024-08-06T09:00:00:Z","depth":0,"parameterNumber":3,"parameterNumberName":"V-component_of_WINDS"},"data":[0,0,0,0,0,0,0,0,0,0,0,0,0,0,0,0,0,0,0,0,0,0,0,0,0,0,0,0,0,0,0,0,0,0,0,0,0,0,0,0,0,0,0,0,0,0,0,0,0,0,0,0,0,0,0,0,0,0,-2.2043,-2.2044,0,-2.2161,-2.2162,-2.2164,-2.2182,-2.2181,-2.218,-2.2179,-2.23,-2.2305,-2.2309,0,0,0,0,0,0,0,0,0,0,0,0,0,-2.1833,-2.1837,-2.2042,-2.2044,-2.2045,-2.2161,-2.2162,-2.2164,-2.2182,-2.2181,-2.218,-2.2178,-2.2299,-2.2304,-2.2309,0,0,0,0,0,0,0,0,0,0,0,0,0,-2.1935,-2.1838,-2.2042,-2.2068,-2.2072,-2.216,-2.2163,-2.2165,-2.2182,-2.2181,-2.2179,-2.2178,-2.2297,-2.2304,-2.231,-2.2381,0,0,-2.2329,-2.2332,0,0,0,0,0,0,0,0,-2.1929,-2.1943,-2.2063,-2.2067,-2.2071,-2.2155,-2.2133,-2.2237,-2.2183,-2.214,-2.2179,-2.2177,-2.2253,-2.2263,-2.2289,-2.2386,-2.2392,-2.233,-2.2334,-2.2336,-2.2338,0,0,0,0,0,0,0,-2.1922,-2.1938,-2.2089,-2.2065,-2.207,-2.2075,-2.2087,-2.2153,-2.2204,-2.2144,-2.2146,-2.2159,-2.2255,-2.2283,-2.2292,-2.2393,-2.233,-2.2335,-2.2339,-2.2342,-2.2557,-2.2559,0,0,0,0,0,0,-2.191,-2.1932,-2.2086,-2.2093,-2.1995,-2.208,-2.2094,-2.213,-2.2204,-2.2213,-2.2161,-2.216,-2.2273,-2.2285,-2.2296,-2.2385,-2.2336,-2.2342,-2.2346,-2.2555,-2.2557,-2.2559,0,0,0,0,0,0,-2.1906,-2.1924,-2.2081,-2.2013,-2.2033,-2.2085,-2.2125,-2.2133,-2.216,-2.2216,-2.2226,-2.2179,-2.2272,-2.2287,-2.236,-2.2389,-2.2345,-2.2351,-2.2553,-2.2556,-2.2558,-2.2562,0,0,0,0,0,0,-2.19,-2.1922,-2.1949,-2.2013,-2.2037,-2.2142,-2.2127,-2.2136,-2.2171,-2.2171,-2.2236,-2.2245,-2.2272,-2.235,-2.2366,-2.2397,-2.2356,-2.255,-2.2554,-2.2557,-2.2559,-2.2565,-2.2569,0,0,0,0,0,-2.1892,-2.1945,-2.195,-2.1969,-2.2072,-2.2144,-2.2157,-2.2186,-2.2173,-2.2201,-2.2238,-2.2243,-2.2384,-2.2358,-2.2376,-2.2409,-2.2548,-2.2553,-2.2557,-2.2557,-2.2564,-2.2569,0,0,0,0,0,0,-2.1883,-2.1954,-2.196,-2.2036,-2.2084,-2.2146,-2.2182,-2.2192,-2.2244,-2.2242,-2.2276,-2.2291,-2.2362,-2.2393,-2.2362,-2.2482,-2.2465,-2.2473,-2.2459,-2.2466,-2.247,-2.2461,-2.2361,0,0,0,0,0,-2.1889,-2.1942,-2.2001,-2.2062,-2.2086,-2.213,-2.2162,-2.2181,-2.2232,-2.2252,-2.2293,-2.2343,-2.2398,-2.2434,-2.2488,-2.2565,-2.2579,-2.2597,-2.2601,-2.2605,-2.2611,-2.2655,-2.2664,-2.2573,-2.2573,-2.2573,0,0,-2.1904,-2.1949,-2.198,-2.2061,-2.21,-2.2154,-2.2147,-2.2204,-2.2244,-2.2261,-2.2332,-2.2364,-2.2422,-2.2497,-2.2532,-2.2525,-2.264,-2.2611,-2.2613,-2.2618,-2.2661,-2.2669,-2.2677,-2.2576,-2.2576,-2.2575,0,0,-2.1957,-2.1996,-2.2052,-2.2092,-2.2151,-2.2181,-2.2194,-2.2256,-2.2278,-2.235,-2.2364,-2.2413,-2.2508,-2.2548,-2.2581,-2.2652,-2.266,-2.2669,-2.2694,-2.2736,-2.2743,-2.275,-2.2776,-2.2784,-2.2676,-2.2676,-2.2676,0,-2.1967,-2.2048,-2.2079,-2.2136,-2.2172,-2.219,-2.2247,-2.2284,-2.2358,-2.2383,-2.2374,-2.2494,-2.2534,-2.2619,-2.2637,-2.2663,-2.2679,-2.2661,-2.274,-2.2747,-2.2753,-2.2778,-2.2788,-2.2676,-2.2676,-2.2676,-2.2676,0,-2.2058,-2.2114,-2.2152,-2.2223,-2.2264,-2.232,-2.236,-2.2398,-2.2413,-2.2444,-2.2518,-2.2567,-2.2631,-2.2653,-2.2669,-2.2742,-2.2735,-2.2733,-2.2716,-2.2762,-2.2786,-2.2796,-2.2677,-2.2677,-2.2677,-2.2677,0,0,-2.2107,-2.2196,-2.2209,-2.2242,-2.231,-2.2355,-2.2413,-2.2476,-2.2508,-2.2559,-2.2609,-2.269,-2.2688,-2.2726,-2.2746,-2.2784,-2.2838,-2.2777,-2.2779,-2.2787,-2.2921,-2.2922,-2.2933,-2.2844,-2.2846,-2.2847,-2.2917,0,-2.2168,-2.2271,-2.2302,-2.2389,-2.2442,-2.2461,-2.2512,-2.256,-2.259,-2.264,-2.2674,-2.2731,-2.2725,-2.2748,-2.2786,-2.2823,-2.2865,-2.2819,-2.2891,-2.2893,-2.2875,-2.2945,-2.2946,-2.3009,-2.2926,-2.2928,-2.2929,0,-2.2252,-2.2305,-2.2398,-2.2461,-2.2484,-2.2529,-2.259,-2.2638,-2.2693,-2.2713,-2.2756,-2.2774,-2.2836,-2.2817,-2.2903,-2.2871,-2.2903,-2.2926,-2.2929,-2.2936,-2.2913,-2.2954,-2.303,-2.3039,-2.2944,-2.2943,-2.2942,0,-2.2278,-2.2373,-2.2441,-2.2469,-2.2544,-2.2575,-2.2608,-2.2662,-2.2698,-2.2752,-2.2777,-2.2837,-2.287,-2.2917,-2.2952,-2.2934,-2.3036,-2.3019,-2.3054,-2.3053,-2.3074,-2.3072,-2.3155,-2.3095,-2.3095,-2.3094,-2.3094,0,-2.2343,-2.2399,-2.2454,-2.2496,-2.256,-2.2595,-2.2657,-2.2691,-2.2739,-2.2788,-2.2809,-2.2855,-2.2897,-2.2949,-2.2977,-2.3045,-2.3059,-2.3077,-2.3084,-2.3075,-2.3073,-2.3096,-2.3092,-2.3097,-2.3096,-2.3096,-2.3096,0,-2.2382,-2.2422,-2.2497,-2.2562,-2.258,-2.2624,-2.268,-2.2722,-2.2754,-2.2816,-2.2833,-2.2884,-2.2946,-2.2985,-2.3064,-2.3083,-2.3157,-2.3163,-2.3139,-2.3142,-2.3175,-2.3171,-2.3275,-2.3291,-2.322,-2.3221,-2.3221,0,-2.2421,-2.2464,-2.2534,-2.2569,-2.2602,-2.2657,-2.2695,-2.2732,-2.2771,-2.2838,-2.2872,-2.2936,-2.2989,-2.3087,-2.3132,-2.3193,-2.3199,-2.3232,-2.3208,-2.3199,-2.32,-2.3196,-2.3201,-2.3235,-2.3236,-2.3236,-2.3237,0,-2.2484,-2.2502,-2.2556,-2.2617,-2.2662,-2.2712,-2.2761,-2.2789,-2.2835,-2.2877,-2.2941,-2.2982,-2.3064,-2.3127,-2.3192,-2.3227,-2.324,-2.3244,-2.3255,-2.3246,-2.3231,-2.324,-2.3149,-2.3241,-2.3241,-2.324,-2.324,-2.324,-2.2524,-2.2564,-2.262,-2.268,-2.2722,-2.2768,-2.2811,-2.2849,-2.2903,-2.2972,-2.2991,-2.3058,-2.3114,-2.3203,-2.3239,-2.3293,-2.3288,-2.3305,-2.3309,-2.3312,-2.3313,-2.3223,-2.3305,-2.3305,-2.3305,-2.3305,-2.3305,0,-2.2589,-2.2626,-2.2681,-2.275,-2.2798,-2.2806,-2.2863,-2.2902,-2.296,-2.3011,-2.3063,-2.3138,-2.32,-2.325,-2.3314,-2.3347,-2.3355,-2.3362,-2.336,-2.3368,-2.3313,-2.3297,-2.3355,-2.3355,-2.3355,-2.3355,-2.3355,-2.3355,-2.2628,-2.2696,-2.2721,-2.2811,-2.2848,-2.2914,-2.2946,-2.2989,-2.303,-2.3112,-2.3164,-2.3196,-2.3247,-2.3315,-2.3373,-2.3386,-2.3409,-2.3415,-2.343,-2.3377,-2.3372,-2.3366,-2.3351,-2.342,-2.342,-2.348,-2.3481,-2.3481]}]]